Regional Weather Roundup
Issued by NWS

Home | Current Version | Previous Version | Graphics & Text | Print | Product List | Glossary Off
Versions: 1 2 3 4 5 6 7 8 9 10 11 12 13 14 15 16 17 18 19 20 21 22 23 24 25 26 27 28 29 30 31 32 33 34 35 36 37 38 39 40 41 42 43 44 45 46 47 48 49 50

732
ASUS43 KDTX 052310
RWRMI
MICHIGAN HOURLY REGIONAL WEATHER ROUNDUP
NATIONAL WEATHER SERVICE DETROIT/PONTIAC MI
600 PM EST MON DEC 05 2016

NOTE: "FAIR" INDICATES FEW OR NO CLOUDS BELOW 12,000 FEET WITH NO
SIGNIFICANT WEATHER AND/OR OBSTRUCTION TO VISIBILITY.

MIZ047>049-052>055-059>063-066>070-074>076-081>083-060000-
SOUTHEAST LOWER MICHIGAN

CITY           SKY/WX    TMP DP  RH WIND       PRES   REMARKS
ADRIAN         CLEAR     33  28  81 CALM      30.06F
ALMA           CLOUDY    36  32  85 S9        30.04R WCI  29
ANN ARBOR      CLOUDY    33  28  81 SW3       30.06F
BAD AXE        CLOUDY    36  31  81 SW7       30.05R WCI  31
CARO           PTCLDY    34  31  90 SW3       30.03S
DETROIT CITY   CLOUDY    37  29  72 SW10      30.08S WCI  30
DETROIT        MOCLDY    37  29  72 SW10      30.08F WCI  30
FLINT          CLOUDY    36  29  75 SW7       30.06S WCI  30
GROSSE ILE     CLEAR     35  28  76 W3        30.07F
HILLSDALE      CLOUDY    32  28  86 CALM      30.03S
HOWELL         CLOUDY    35  28  77 SW9       30.05S WCI  27

CITY           SKY/WX    TMP DP  RH WIND       PRES   REMARKS
JACKSON        CLOUDY    32  27  81 S3        30.04F
LAMBERTVILLE   PTCLDY    33  28  81 CALM      30.08S
LANSING        CLOUDY    34  27  75 SW12      30.06S WCI  25
LAPEER         NOT AVBL
MASON          CLOUDY    33  29  85 SW3       30.06S
MONROE         PTCLDY    34  29  85 CALM      30.07F
MT. CLEMENS    PTCLDY    36  31  79 SW8       30.04S WCI  30
PONTIAC        MOCLDY    37  29  72 SW8       30.04S WCI  31
PORT HOPE        N/A     36  31  82 VRB5      30.02R WCI  32
PORT HURON     CLEAR     32  28  86 CALM      30.05S
TRI CITIES     MOCLDY    38  32  79 SW10      30.04R WCI  31
MIDLAND        MOCLDY    38  31  75 S5        30.03R WCI  35
TROY           MOCLDY    38  29  71 SW6       30.08S WCI  33
SAGINAW HB     MOCLDY    37  32  81 SW14      30.04S WCI  29
$$
MIZ043>046-050>051-056>058-064>065-071>073-077>080-060000-
SOUTHWEST LOWER MICHIGAN

CITY           SKY/WX    TMP DP  RH WIND       PRES   REMARKS
BATTLE CREEK   CLOUDY    33  29  85 S8        30.04F WCI  26
BENTON HARBOR  CLOUDY    34  30  85 SE8       30.02F WCI  27
BIG RAPIDS     MOCLDY    38  30  71 CALM      29.99F
COLDWATER      CLOUDY    32  28  86 CALM      30.03F
FREMONT        CLOUDY    37  32  80 S10       30.01R WCI  30
HOLLAND        CLOUDY    34  29  82 S8        30.04S WCI  27
GRAND RAPIDS   CLOUDY    35  29  78 S8        30.04S WCI  29
IONIA          FAIR      33  30  88 S9        30.03S WCI  25
KALAMAZOO      CLOUDY    34  28  79 S8        30.04F WCI  27
LUDINGTON      CLOUDY    40  35  80 SW13G18   29.99R WCI  33
MARSHALL       CLOUDY    33  29  86 CALM      30.04F
MOUNT PLEASANT CLOUDY    38  31  77 SW3       30.01F
MUSKEGON       CLOUDY    38  32  79 S10       30.03R WCI  31
SOUTH HAVEN    CLOUDY    34  32  90 S6        30.03F WCI  29
$$
MIZ016>042-060000-
NORTHERN LOWER MICHIGAN

CITY           SKY/WX    TMP DP  RH WIND       PRES   REMARKS
ALPENA         MOCLDY    32  28  85 CALM      29.99R
BEAVER ISLAND  MOCLDY    38  32  78 SW9       29.95R WCI  32
BELLAIRE       CLOUDY    38  32  79 SW5       29.98R WCI  34
CADILLAC       CLEAR     34  30  85 SW7       29.96S WCI  28
CHARLEVOIX     MOCLDY    39  32  75 SW10      29.99R WCI  32
FRANKFORT      CLOUDY    40  34  80 S10       29.98R WCI  33
GAYLORD        PTCLDY    32  26  78 SW8       29.96R WCI  25
GRAYLING       CLEAR     30  29  96 CALM      29.99R
HARBOR SPRINGS CLOUDY    40  33  77 SW9G17    29.95R WCI  33
HOUGHTON LAKE  CLEAR     35  29  78 SW6       29.99R WCI  30
MANISTEE       CLOUDY    38  32  79 CALM      29.99R
OSCODA         CLEAR     35  30  81 SW5       30.01R WCI  31
PELLSTON       CLOUDY    35  29  78 S3        29.95R
ROGERS CITY    CLOUDY    38  33  83 SW3       29.98R
TRAVERSE CITY  PTCLDY    38  30  73 CALM      29.97R
$$
MIZ007>008-015-060000-
EASTERN UPPER MICHIGAN

CITY           SKY/WX    TMP DP  RH WIND       PRES   REMARKS
KINROSS        PTCLDY    30  29  96 SW5       29.94R WCI  25
MACKINAC ISLAN CLOUDY    37  30  74 W8        29.94R WCI  31
NEWBERRY       CLOUDY    34  32  92 SW7       29.93R WCI  28
S. S. MARIE    CLEAR     34  30  85 SW8       29.92R WCI  27
MUNISING         N/A     32  30  92 S6        29.90R WCI  26
$$
MIZ004>006-011>014-085-060000-
CENTRAL UPPER MICHIGAN

CITY           SKY/WX    TMP DP  RH WIND       PRES   REMARKS
MANISTIQUE     CLEAR     36  32  86 SW3       29.93S
ESCANABA       MOCLDY    34  31  88 SW7       29.92S WCI  28
MENOMINEE      CLOUDY    35  31  85 SW8       29.96R WCI  29
SAWYER-GWINN   CLEAR     32  30  93 S7        29.87S WCI  26
$$
MIZ001>003-009>011-084-060000-
WESTERN UPPER MICHIGAN

CITY           SKY/WX    TMP DP  RH WIND       PRES   REMARKS
IRON MOUNTAIN  MOCLDY    33  28  81 S7        29.88R WCI  27
HOUGHTON       CLEAR     31  26  82 NE3       29.83S
COPPER HARBOR    N/A     35  33  92 SW3       29.86R
IRONWOOD       CLOUDY    37  30  75 S10       29.81R WCI  30
$$

ABBREVIATIONS USED IN REMARKS
   TC - TEMPERATURE IN CELSIUS
  WCI - WIND CHILL INDEX
   HX - HEAT INDEX
  VSB - VISIBILITY





USA.gov is the U.S. government's official web portal to all federal, state and local government web resources and services.